Location: Hamburg
(53.5500°N, 10.0000°E)
Time: 04:29:25
(UTC+02:00)

Daily predictions for brighter satellites

Satellite Brightness Start Highest point End
(mag) Time Altitude Azimuth Time Altitude Azimuth Time Altitude Azimuth
Cosmos 1812 3.6 00:01:02 10° NNW 00:04:44 43° W 00:07:07 19° SSW
Cosmos 1689 Rocket 3.7 00:04:20 20° ESE 00:05:47 28° ENE 00:08:35 10° N
Okean 1-7 Rocket 3.7 00:02:25 10° NNW 00:06:57 72° W 00:09:39 23° S
H-2A R/B 3.6 00:03:51 10° SSW 00:08:32 29° W 00:13:10 10° NNW
Cosmos 1354 Rocket 4.1 00:07:42 10° NNW 00:12:58 71° ENE 00:16:24 22° SE
Meteor 1-19 Rocket 4.3 00:07:25 10° NNW 00:13:21 86° ENE 00:17:08 23° SSE
NOSS 3-1 (C) 4.0 00:07:26 10° NW 00:14:43 79° SW 00:21:00 18° SE
Cosmos 1025 Rocket 3.0 00:11:06 10° N 00:15:31 77° ENE 00:17:51 27° SSE
Meteor 1-23 Rocket 4.4 00:10:24 10° N 00:16:00 66° ENE 00:19:30 23° SSE
Okean 1 Rocket 3.1 00:13:31 23° S 00:16:17 85° E 00:20:48 10° NNE
Cosmos 1486 Rocket 4.2 00:11:42 10° NNW 00:17:02 68° WSW 00:20:13 24° S
SeaSat 1 4.2 00:13:07 10° E 00:17:14 27° NE 00:21:23 10° NNW
Cosmos 2084 Rocket 3.8 00:14:32 10° NW 00:18:19 55° NE 00:21:25 15° ESE
Cosmos 1346 Rocket 4.4 00:16:08 10° N 00:19:26 25° ENE 00:21:42 15° ESE
Cosmos 2098 4.4 00:18:10 33° S 00:19:31 80° E 00:23:25 10° NNE
Cosmos 1300 Rocket 3.6 00:16:53 21° SSW 00:19:48 79° WNW 00:24:17 10° N
Cosmos 1633 3.3 00:21:36 29° SE 00:22:51 39° E 00:26:21 10° NNE
ASTEX 1 4.0 00:18:30 10° N 00:23:20 55° WNW 00:27:12 16° SSW
USA 234 3.2 00:17:34 10° ENE 00:24:07 68° SSE 00:30:38 10° SW
CZ-4B R/B 1.8 00:23:40 31° SE 00:24:46 47° ENE 00:27:50 10° N
Cosmos 1536 3.2 00:24:23 30° SSE 00:26:00 48° E 00:29:51 10° NNE
Terra 3.8 00:25:00 10° SW 00:28:29 20° W 00:32:01 10° NW
Cosmos 1400 Rocket 3.1 00:28:27 30° SSE 00:30:11 55° E 00:34:16 10° NNE
Meteor 2-15 4.4 00:29:12 10° NNW 00:35:23 88° W 00:39:12 25° S
Lacrosse 5 3.3 00:37:56 19° SE 00:38:02 19° SE 00:41:35 10° E
Cosmos 1356 3.4 00:37:53 37° S 00:39:10 75° E 00:42:43 10° NNE
Cosmos 1544 Rocket 4.0 00:41:10 29° SSE 00:42:59 49° E 00:47:11 10° NNE
Cosmos 2369 Rocket 3.2 00:40:58 23° SE 00:43:17 31° ESE 00:48:11 10° NE
ISS -1.9 00:46:52 23° ESE 00:46:52 23° ESE 00:48:27 10° E
Cosmos 2285 Rocket 4.5 00:42:00 24° SSE 00:45:25 45° ESE 00:51:28 10° NE
Cosmos 1821 Rocket 4.0 00:42:38 22° S 00:46:55 88° W 00:53:12 10° N
Cosmos 1605 Rocket 4.2 00:43:30 24° SSE 00:47:22 62° E 00:53:42 10° NNE
deb Kosmos-1763 4.3 00:48:52 10° NNW 00:52:48 70° ENE 00:54:35 30° SE
Cosmos 2123 Rocket 4.1 00:49:19 10° NNW 00:55:37 72° W 00:59:27 25° S
Cosmos 1302 Rocket 4.0 00:54:21 25° SSW 00:57:27 76° ESE 01:02:45 10° NNE
CZ-2C R/B 3.4 00:54:44 10° NNE 00:59:33 36° E 01:02:03 23° SE
Meteor 1-5 Rocket 4.3 00:58:24 27° SSE 01:01:13 57° E 01:06:26 10° NNE
BREEZE-M DEB (TANK) 3.1 00:59:34 10° W 01:02:28 44° S 01:10:36 10° ESE
SL-8 R/B 3.9 01:00:15 10° WSW 01:04:50 45° S 01:09:24 10° ESE
Cosmos 1934 Rocket 4.0 01:01:58 23° SSW 01:05:56 78° WNW 01:12:02 10° N
Okean 2 3.6 01:02:07 10° NNW 01:06:15 62° W 01:07:59 33° SSW
Cosmos 44 Rocket 4.0 01:03:31 10° NW 01:08:40 58° NE 01:13:40 10° ESE
CZ-2C R/B 3.3 01:10:32 23° SE 01:13:38 61° ENE 01:18:26 10° N
CZ-4C R/B 4.3 01:13:09 25° SW 01:14:28 32° W 01:17:53 10° NNW
Cosmos 1892 Rocket 4.2 01:10:58 10° NNW 01:15:08 44° W 01:17:02 27° SSW
Cosmos 2278 Rocket 4.2 01:12:25 10° W 01:17:14 28° NW 01:22:05 10° NNE
Landsat 5 4.0 01:18:23 30° SSW 01:20:13 50° W 01:24:23 10° NNW
Helios 1A Rocket 3.1 01:17:22 10° NNE 01:21:31 59° ESE 01:23:08 34° SSE
Meteor 2-4 Rocket 4.4 01:17:39 10° NNW 01:22:39 40° W 01:25:36 22° SSW
Meteor 1-11 Rocket 4.4 01:20:27 17° SW 01:24:50 51° WNW 01:30:28 10° N
H-2A R/B 2.8 01:22:34 10° NNE 01:27:08 73° WNW 01:29:31 28° SSW
Cosmos 1315 Rocket 3.0 01:27:39 31° SW 01:29:22 61° WNW 01:33:17 10° N
Cosmos 1943 Rocket 3.2 01:29:14 22° SSE 01:31:41 32° ESE 01:36:35 10° NE
NOSS 3-1 (A) 4.4 01:26:29 10° NW 01:33:26 44° WSW 01:37:56 24° S
Lacrosse 5 rocket 1.7 01:35:06 35° SSE 01:35:16 35° SE 01:38:39 10° ENE
Cosmos 1602 Rocket 3.6 01:32:07 10° NNW 01:36:32 68° W 01:38:28 32° S
MOS 1-B Rocket 4.5 01:33:24 25° SSW 01:36:52 54° W 01:43:38 10° NNW
Cosmos 1689 Rocket 3.8 01:37:23 22° WSW 01:37:58 24° W 01:40:39 10° NW
ALOS 2 4.0 01:36:16 20° SW 01:38:05 26° W 01:41:48 10° NW
Cosmos 2263 4.4 01:39:35 28° S 01:42:28 58° ESE 01:48:02 10° NE
Cosmos 1626 Rocket 3.8 01:38:21 10° NNW 01:42:46 60° W 01:44:42 31° SSW
Cosmos 1455 Rocket 3.5 01:49:21 26° SW 01:51:33 52° WNW 01:55:50 10° N
SeaSat 1 2.4 01:51:13 23° SSE 01:54:23 81° WSW 01:59:22 10° NNW
Cosmos 1500 3.5 01:53:00 33° SSE 01:54:27 55° E 01:58:12 10° NNE
ATLAS 2AS CENTAUR R/B 3.1 01:47:10 10° NW 01:55:17 68° SW 02:02:00 15° SSE
Cosmos 1346 Rocket 3.6 01:52:19 10° NNW 01:55:59 38° W 01:57:15 29° SW
Cosmos 1515 3.8 01:53:21 10° NNW 01:57:11 61° W 01:58:34 36° SSW
Cosmos 1833 4.3 01:51:50 10° NW 01:57:21 58° WSW 02:00:26 26° S
Cosmos 2084 Rocket 4.2 01:54:16 10° WNW 01:57:40 29° SW 01:57:57 28° SW
CZ-4B R/B 3.5 01:57:25 13° W 01:57:55 14° W 01:59:37 10° WNW
Cosmos 44 3.8 01:53:26 10° NW 01:58:47 66° NE 02:03:49 10° ESE
BREEZE-M R/B 4.5 01:48:58 10° W 01:59:11 65° SSW 02:04:55 10° ESE
Cosmos 968 Rocket 3.5 01:55:21 10° NNW 02:00:37 73° WSW 02:03:38 25° SSE
Cosmos 1818 4.2 01:58:21 26° S 02:00:48 41° ESE 02:05:57 10° NE
USA 234 3.5 02:00:43 10° ENE 02:07:15 73° NNW 02:13:46 10° W
Cosmos 2100 Rocket 4.1 02:04:33 25° SSW 02:08:33 82° W 02:14:59 10° N
Genesis I 3.3 02:09:15 25° SW 02:11:33 77° NW 02:15:36 10° NE
Cosmos 2061 Rocket 4.1 02:10:00 24° SSW 02:14:06 82° W 02:20:34 10° N
Cosmos 1975 3.2 02:14:50 29° SW 02:16:40 57° WNW 02:20:42 10° N
GP-B 3.9 02:12:55 10° N 02:17:07 41° W 02:19:18 24° SW
Lacrosse 5 1.9 02:17:06 23° SW 02:20:17 65° SSE 02:25:20 10° ENE
ISS -3.4 02:19:26 19° WSW 02:21:36 63° S 02:24:50 10° E
Cosmos 2228 4.5 02:21:46 15° SE 02:24:35 29° E 02:28:19 10° NNE
Cosmos 2219 3.2 02:20:57 10° NW 02:26:34 64° WSW 02:30:26 20° SSE
Cosmos 2369 Rocket 2.6 02:22:45 17° SW 02:27:02 60° NW 02:32:37 10° NNE
Cosmos 1606 Rocket 3.8 02:24:45 26° S 02:27:02 62° E 02:31:19 10° NNE
Cosmos 1066 Rocket 4.5 02:22:49 10° NNW 02:27:58 49° W 02:30:53 24° SSW
Cosmos 1802 Rocket 4.1 02:26:56 23° SSW 02:30:58 72° WNW 02:37:18 10° N
Cosmos 2016 Rocket 4.0 02:27:49 23° SSW 02:31:47 81° WNW 02:37:56 10° N
Cosmos 1777 Rocket 4.0 02:27:13 10° NNW 02:32:24 66° WSW 02:35:48 21° S
Cosmos 2227 Rocket 2.9 02:28:29 10° NNW 02:34:07 56° NE 02:39:42 10° SE
Cosmos 1459 Rocket 4.2 02:30:16 22° SSW 02:34:17 60° WNW 02:40:19 10° N
Cosmos 1992 Rocket 4.4 02:32:20 20° SW 02:35:53 58° WNW 02:41:03 10° NNE
Cosmos 972 Rocket 4.4 02:31:47 10° NNW 02:36:39 59° ENE 02:41:38 10° SE
CZ-2C R/B 3.4 02:35:03 10° N 02:39:56 43° WNW 02:43:34 17° SW
Uosat 12 SS-18 rocket 4.1 02:35:32 10° NW 02:39:59 83° SW 02:45:05 10° SE
Cosmos 2058 Rocket 3.5 02:37:54 22° SSE 02:40:33 57° E 02:44:57 10° NNE
USA 161 4.2 02:41:26 10° ESE 02:43:28 17° ENE 02:45:28 10° NNE
Cosmos 1953 Rocket 3.8 02:42:30 10° NNW 02:46:44 51° W 02:48:56 25° SSW
Cosmos 1743 2.8 02:45:46 28° SSW 02:47:39 70° WNW 02:51:33 10° N
Cosmos 1842 3.3 02:45:35 10° NNW 02:49:34 73° W 02:51:49 25° S
Cosmos 44 Rocket 4.0 02:45:23 10° NW 02:50:04 36° WSW 02:52:31 23° SSW
Cosmos 1864 Rocket 4.5 02:47:04 21° SSW 02:51:29 85° W 02:57:45 10° N
CZ-2C R/B 4.4 02:51:36 17° SW 02:53:53 24° W 02:57:50 10° NW
Cosmos 2297 Rocket 2.8 02:50:29 10° NNW 02:56:06 59° NE 03:01:41 10° SE
JB-3 4.4 02:55:15 10° NNE 02:59:19 84° ESE 03:01:48 23° SSW
Cosmos 1340 2.8 02:56:32 10° NNW 03:00:17 57° W 03:02:19 25° SSW
Cosmos 1726 Rocket 3.6 03:01:53 23° SSW 03:04:29 69° WNW 03:08:49 10° N
Tsikada Rocket 4.4 02:58:36 10° NNW 03:04:37 50° W 03:09:01 19° SSW
Cosmos 1725 Rocket 4.1 03:01:17 20° SSW 03:05:44 69° WNW 03:11:56 10° N
Cosmos 1758 Rocket 4.4 03:06:53 10° NNW 03:11:03 37° W 03:13:31 21° SW
GEOS 3 Rocket 3.5 03:06:00 10° SE 03:11:13 79° SW 03:16:24 10° NW
Cosmos 2150 Rocket 4.3 03:07:00 10° NNW 03:12:19 72° ENE 03:17:30 10° SE
NPP 3.9 03:06:55 10° NNE 03:12:19 65° ESE 03:16:40 16° S
Cosmos 1656 Rocket 3.7 03:08:39 20° SSW 03:12:45 81° ESE 03:18:24 10° NNE
Lacrosse 5 rocket 1.3 03:10:48 11° WSW 03:14:20 68° NNW 03:17:59 10° ENE
Cosmos 1943 Rocket 2.5 03:10:45 16° SW 03:15:10 59° NW 03:20:45 10° NNE
SL-16 R/B 3.1 03:10:54 10° SE 03:16:55 59° ENE 03:22:59 10° NNW
NOSS 3-4 (A) 3.8 03:11:19 10° NW 03:18:10 84° NE 03:25:26 10° SE
NOSS 3-4 (C) 3.9 03:11:24 10° NW 03:18:17 84° NE 03:25:36 10° SE
Gblst 52 Del rocket 4.4 03:14:03 10° WSW 03:20:41 65° SSE 03:26:31 10° E
BREEZE-M DEB (TANK) 4.1 03:19:07 20° SSW 03:20:50 27° SSE 03:23:57 10° E
Resurs 1-4 Rocket 3.8 03:17:11 10° NE 03:21:38 27° E 03:26:02 10° SSE
Cosmos 1666 2.8 03:20:22 22° SSW 03:22:43 62° WNW 03:26:30 10° N
SL-08 R/B 3.4 03:21:31 16° S 03:25:10 56° W 03:29:47 10° NNW
Cosmos 405 Rocket 3.1 03:21:10 10° N 03:25:17 71° ENE 03:29:20 10° SSE
BREEZE-M DEB (TANK) 3.6 03:22:30 10° W 03:27:54 25° SW 03:29:34 17° S
Cosmos 1570 Rocket 4.1 03:25:06 17° SSW 03:29:14 84° ESE 03:34:37 10° NNE
Cosmos 1898 Rocket 3.5 03:24:35 10° NNW 03:29:58 87° WSW 03:35:19 10° SSE
NOSS 3-3 (A) 4.3 03:25:26 17° SSW 03:30:28 65° SE 03:37:19 10° NE
NOSS 3-3 (C) 4.3 03:25:32 17° SSW 03:30:33 65° SE 03:37:24 10° NE
SeaSat 1 4.1 03:31:01 14° SW 03:32:38 16° WSW 03:35:42 10° WNW
Abrixas 3.3 03:32:52 22° SW 03:34:10 31° S 03:36:56 10° ESE
ADEOS 4.0 03:30:11 10° NNE 03:35:22 60° ESE 03:40:23 11° S
Cosmos 44 4.2 03:35:10 10° WNW 03:39:44 31° WSW 03:43:48 11° S
Cosmos 1818 4.1 03:38:58 10° WSW 03:44:20 55° NW 03:49:45 10° NE
ATLAS 2AS CENTAUR R/B 4.2 03:39:23 10° WNW 03:44:59 21° WSW 03:49:21 13° SW
Okean O Rocket 4.2 03:42:38 10° NE 03:45:17 15° E 03:47:54 10° SE
Geosat 4.1 03:40:45 10° NE 03:45:49 74° ESE 03:50:13 14° SSW
Cosmos 1937 Rocket 3.5 03:41:26 10° NNW 03:46:38 86° WSW 03:51:50 10° SSE
ATLAS CENTAUR R/B 3.8 03:45:01 10° SSE 03:48:40 20° ESE 03:52:18 10° ENE
USA 234 3.6 03:43:33 10° E 03:50:04 70° N 03:56:34 10° WNW
ARIANE 5 R/B 3.1 03:48:11 10° NNE 03:53:13 55° E 03:58:16 10° S
EO 1 Del DPAF 3.5 03:50:01 10° SSE 03:53:52 72° ENE 03:57:46 10° NNW
Cosmos 1378 4.1 03:50:14 10° N 03:53:57 49° ENE 03:57:38 10° SSE
Meteor 2-5 Rocket 3.9 03:50:41 10° NNW 03:56:26 64° W 04:02:15 10° S
ISS -2.9 03:54:44 10° W 03:57:50 39° SSW 04:00:55 10° SE
Cosmos 1076 Rocket 4.1 03:54:48 10° N 03:59:07 59° ENE 04:03:24 10° SSE
Cosmos 220 Rocket 4.3 03:55:35 10° NW 03:59:49 48° WSW 04:03:57 10° S
Cosmos 2228 3.9 03:58:39 13° SW 04:02:05 36° WNW 04:06:06 10° N
ERS-2 2.2 03:59:29 10° NNE 04:03:14 77° WNW 04:06:41 12° SSW
Lacrosse 5 2.3 03:58:17 10° W 04:03:22 63° N 04:08:27 10° ENE
Spot 4 Rocket 4.1 03:58:24 10° NNE 04:03:36 86° ESE 04:08:47 10° SSW
Cosmos 1441 Rocket 3.9 04:00:43 10° N 04:04:39 59° ENE 04:08:36 10° SSE
Cosmos 2082 4.1 03:59:50 10° NW 04:05:09 43° WSW 04:10:25 10° S
Cosmos 1707 2.9 04:01:29 10° NNW 04:05:21 55° W 04:09:12 10° S
Cosmos 1464 Rocket 4.1 04:02:23 10° SSW 04:08:40 77° WNW 04:15:04 10° N
UNK 3.8 04:05:06 10° S 04:09:46 71° WSW 04:14:29 10° NNW
Cosmos 2208 Rocket 4.4 04:06:04 12° SW 04:10:52 55° WNW 04:16:05 10° NNE
CZ-2D R/B 2.7 04:05:46 10° NNE 04:11:14 61° ESE 04:16:36 10° S
GENESIS II 4.5 04:08:13 12° SW 04:11:57 71° SE 04:16:07 10° NE
Cosmos 2369 Rocket 4.2 04:08:04 10° WNW 04:12:15 21° NNW 04:16:25 10° NNE
USA 161 2.4 04:11:12 11° SSW 04:13:40 31° W 04:16:16 10° NNW
IRS-1C 4.3 04:08:24 10° N 04:13:42 64° WNW 04:18:58 10° SSW
IRS-1D 3.6 04:09:47 10° NNE 04:14:47 75° ESE 04:19:44 10° S
Cosmos 1697 Rocket 4.0 04:10:00 10° S 04:15:01 34° ESE 04:20:05 10° NE
Cosmos 1408 Rocket 3.7 04:11:59 10° N 04:16:22 81° ENE 04:20:46 10° SSE
Cosmos 1766 Rocket 3.8 04:12:20 10° N 04:16:45 76° ENE 04:21:10 10° SSE
Cosmos 2227 Rocket 2.9 04:12:54 10° NW 04:17:58 34° WSW 04:23:00 10° S
Cosmos 1092 Rocket 4.1 04:12:38 10° N 04:18:57 85° E 04:25:16 10° S
BREEZE-M DEB (TANK) 3.2 04:19:49 11° SW 04:21:58 23° S 04:24:59 10° ESE
Cosmos 1980 Rocket 4.0 04:17:36 10° SSE 04:22:07 25° ESE 04:26:40 10° NE
Cosmos 1812 Rocket 4.1 04:18:54 10° SSW 04:23:14 47° WNW 04:27:35 10° N
Cosmos-2242 4.3 04:24:57 10° SSE 04:28:59 39° E 04:32:59 10° NNE
CZ-2C R/B 4.0 04:26:39 10° SSE 04:31:19 76° ENE 04:35:58 10° NNW
Cosmos 1814 Rocket 4.3 04:26:11 10° SSW 04:31:30 74° ESE 04:36:53 10° NNE
MTI 3.8 04:29:39 10° S 04:32:55 65° WSW 04:36:14 10° NNW
Cosmos 2278 3.8 04:33:01 10° SW 04:38:42 78° WNW 04:44:26 10° NNE
Cosmos 2369 3.8 04:33:22 10° SSW 04:39:02 85° WNW 04:44:46 10° NNE
Cosmos 2297 Rocket 2.9 04:34:56 10° NW 04:39:53 32° WSW 04:44:49 10° SSW
